Location: *
(46.3500°N, 10.9000°E)
Time: 23:48:34
(UTC+00:00)

Vanguard 2 - Pass Details

Date: 23 April 2021
Orbit: 552 x 2938 km, 32.9° (Epoch: 12 May)

Event Time Altitude Azimuth Distance (km) Brightness Sun altitude
Rises 10:58:01 0° 234° (SW) 6,785 12.6 56.2°
Reaches altitude 10° 11:03:02 10° 229° (SW) 5,722 12.4 56.3°
Maximum altitude 11:18:10 41° 168° (SSE) 3,244 12.5 56.3°
Drops below altitude 10° 11:29:13 10° 104° (ESE) 4,226 11.5 56.2°
Sets 11:32:18 0° 97° (E) 4,918 11.7 56.1°
